User: anonymous   Login
Location: Albuquerque Trailhead
(34.7934°N, 106.3736°W)
Time: 00:57:41
(UTC+00:00)
Language:

CAS-4A - Orbit

View from above orbital plane
View from above orbital plane
View from above satellite
View from above satellite

Ground track
Ground track

The orbit data is extracted from the following two-line orbital elements,

1 42761U 17034D   23089.52242727  .00012965  00000-0  67374-3 0  9991
2 42761  43.0166 191.0689 0012355 311.7321 116.3877 15.15933682319706
Epoch (UTC): 30 March 2023 12:32:17
Eccentricity: 0.0012355
inclination: 43.0166°
perigee height: 509 km
apogee height: 526 km
right ascension of ascending node: 191.0689°
argument of perigee: 311.7321°
revolutions per day: 15.15933682
mean anomaly at epoch: 116.3877°
orbit number at epoch: 31970

The dashed part of the orbit path shows where the satellite is in the earth's shadow,  

DLR